Theta_e
310 310 310 310 310 310 310 310 310 310 310 310 311 310 310 311 311 311 311 312 312 312 313 313 313 314 314 314 314 314 314 314 314 314 313 313 313 313 314 315 316 315 316 316 316 318 317 316 315 315 315 315 315 316 316 317 319 320 324 323 321 325 326 324 326 319 317 324 320 314 314 314 316 316 315 316 316 316 316 315 316 316 316 317 317 317 317 317
310 310 310 310 310 310 310 310 310 310 310 311 311 311 311 311 311 312 312 312 313 313 313 314 314 314 314 314 314 314 315 315 315 315 315 315 314 314 314 314 315 315 315 315 315 316 317 316 316 316 315 315 315 316 317 317 318 323 325 321 323 328 322 317 319 315 314 319 316 315 315 313 315 315 314 316 315 314 315 314 314 316 316 316 316 317 317 316
310 309 310 310 309 309 309 310 310 310 310 311 311 311 311 312 312 312 313 313 313 314 314 314 314 314 314 315 314 314 315 315 315 316 316 316 316 315 314 314 314 315 315 315 315 315 316 315 316 316 315 315 316 317 318 318 319 320 319 323 330 325 315 313 314 315 316 316 314 314 315 312 314 315 313 314 314 314 315 314 313 314 316 316 317 316 316 316
309 309 309 310 310 310 310 309 310 310 310 311 311 311 311 312 312 313 313 313 313 314 314 314 314 314 314 314 314 315 314 314 316 317 316 314 316 316 315 314 314 315 315 315 315 315 315 316 316 315 315 315 315 317 318 318 320 318 318 328 328 316 315 317 315 316 316 315 313 314 313 312 314 315 313 313 314 316 315 314 315 315 316 316 316 316 316 316
309 309 310 310 310 310 310 310 310 310 310 310 311 311 311 312 312 312 313 313 313 313 314 314 314 314 314 314 314 314 314 316 317 317 315 314 316 316 315 315 314 315 316 315 315 315 314 316 317 315 315 315 314 317 318 317 318 318 318 321 318 313 317 318 316 317 316 315 314 312 314 314 315 314 313 313 314 317 316 316 316 315 316 316 315 315 315 315
309 310 310 310 310 310 310 310 310 310 310 310 310 311 311 311 311 312 312 312 313 313 313 313 313 313 314 314 314 314 313 315 316 315 314 314 316 316 315 315 315 315 316 316 315 315 314 315 317 315 314 314 315 317 317 317 317 319 319 316 316 315 316 317 317 317 316 315 314 313 315 314 313 314 314 313 314 316 316 316 315 316 316 315 315 315 315 315
309 310 310 310 310 310 310 310 311 311 311 311 311 311 311 311 311 311 312 312 312 313 313 313 313 313 313 313 314 313 313 314 314 314 314 315 317 316 315 315 315 315 316 316 316 315 313 315 316 315 314 314 314 316 315 316 315 318 320 315 316 317 315 317 317 316 316 315 315 315 315 313 313 314 313 312 314 316 316 316 315 315 315 315 315 315 315 315
310 310 310 310 310 310 310 311 311 311 311 311 311 311 311 311 311 311 312 312 312 312 312 312 312 312 313 313 314 313 313 314 314 314 315 315 316 315 314 315 315 315 315 315 316 316 313 314 315 314 315 314 314 315 314 314 315 317 320 316 315 316 315 317 316 315 316 315 315 315 312 313 314 313 312 312 315 316 316 316 316 315 315 315 315 315 315 315
311 311 311 311 311 311 311 312 312 312 312 312 312 312 312 312 312 312 312 312 312 312 312 313 312 313 313 313 313 313 313 315 315 315 315 315 315 314 315 314 315 315 315 316 316 316 314 313 314 314 314 314 314 314 313 315 316 316 317 315 314 314 315 315 315 314 314 314 314 312 312 313 313 312 312 313 315 316 316 315 315 315 314 314 315 315 315 315
311 312 311 312 312 312 312 312 312 313 313 313 313 313 313 313 314 314 314 314 314 314 314 314 314 314 314 314 313 313 315 316 316 315 315 315 315 314 315 314 315 315 315 316 315 315 314 313 313 314 314 314 313 313 312 314 316 314 313 313 312 312 313 312 312 312 312 312 312 312 314 313 312 312 313 314 316 315 315 315 315 314 314 315 315 315 315 315
313 313 312 312 312 312 312 312 313 313 313 313 313 313 313 313 313 313 313 313 314 314 314 314 315 314 314 313 312 313 316 316 315 315 315 315 315 315 315 315 315 315 315 315 315 315 314 313 312 313 315 314 313 312 312 313 314 312 311 312 312 310 311 311 310 311 311 312 312 312 312 312 311 311 313 314 315 315 314 315 314 314 315 315 315 316 316 316
316 316 316 315 315 315 315 315 316 316 316 317 316 316 316 316 315 315 314 314 313 312 312 312 312 312 313 311 311 314 315 315 315 315 315 315 315 315 315 315 315 314 315 315 315 314 313 312 311 312 314 313 313 312 312 312 312 312 312 314 314 312 312 312 311 311 311 312 311 310 311 313 313 313 315 314 315 315 313 314 314 315 315 315 316 316 316 316
319 319 319 319 319 319 319 319 320 320 321 321 321 321 321 321 321 320 320 319 319 317 315 314 312 312 311 311 312 314 315 314 315 315 315 316 315 315 315 314 314 314 314 315 314 313 312 311 310 312 313 313 313 312 312 311 311 313 312 313 314 313 314 311 310 310 309 311 311 311 312 316 316 313 314 315 314 313 312 313 314 315 315 316 316 316 316 316
316 316 317 317 317 318 318 319 319 320 320 320 321 322 322 322 323 323 322 322 322 321 321 319 317 315 312 312 312 312 313 313 313 313 314 314 314 314 314 314 314 314 314 314 314 313 312 311 311 312 312 313 313 312 313 313 315 315 311 313 314 314 316 313 309 309 310 311 310 311 312 313 314 312 313 314 313 312 312 312 314 315 315 315 316 315 316 316
311 312 312 312 312 313 313 313 314 314 314 314 315 315 315 316 317 317 317 317 317 317 318 319 319 317 313 313 315 313 313 313 313 313 313 314 314 314 313 314 314 314 314 314 314 313 312 312 312 312 312 313 312 314 317 318 323 322 312 316 318 314 317 314 309 308 311 312 308 311 314 312 313 313 314 314 313 311 311 312 314 314 314 315 315 315 315 315
311 311 311 311 310 310 311 311 311 311 311 311 311 312 312 312 312 312 312 312 312 312 313 314 316 316 313 315 317 315 315 314 314 313 314 314 314 314 313 313 313 314 314 313 313 313 312 313 313 313 312 313 314 318 320 318 324 324 314 316 319 315 314 313 312 309 308 311 309 311 313 313 314 313 313 314 313 311 310 311 313 313 314 314 314 314 314 314
312 312 312 312 312 312 312 312 312 312 313 313 312 312 312 312 312 312 312 312 311 310 310 312 313 313 314 315 316 317 317 316 315 313 313 313 314 315 314 313 313 314 313 313 313 312 312 312 312 314 313 312 315 318 318 316 319 320 315 315 317 315 313 313 315 310 306 310 312 312 311 311 312 312 312 313 313 311 309 310 311 312 312 313 313 313 313 314
314 314 314 314 314 314 315 315 315 315 315 315 314 314 313 313 312 312 313 313 312 311 310 312 312 313 315 315 315 317 316 315 314 314 313 313 314 315 315 314 314 314 313 312 312 311 312 311 311 315 315 313 314 315 316 316 316 317 316 315 314 314 313 312 314 312 310 312 312 313 311 310 311 310 309 311 312 310 309 310 310 311 311 311 312 311 312 313
315 316 317 317 317 318 318 318 318 318 317 317 316 316 314 313 312 313 314 313 312 313 314 314 313 315 317 316 315 315 315 314 313 313 314 314 314 314 315 314 314 313 312 313 313 310 311 311 311 315 315 314 313 313 314 315 314 314 313 313 312 312 312 312 312 310 310 311 310 311 310 310 310 310 309 310 311 310 309 310 310 310 310 310 311 311 312 312
318 317 317 318 318 319 319 319 319 319 318 317 318 317 314 312 313 313 313 313 313 313 314 313 314 314 315 314 315 314 314 314 313 313 314 314 314 314 314 313 313 312 311 316 317 310 310 313 314 315 315 314 313 312 312 312 312 312 311 312 312 312 311 310 311 310 308 309 311 311 311 310 310 310 310 309 310 309 308 309 310 311 310 311 311 312 312 313
322 322 320 319 319 318 318 318 318 318 318 319 320 319 315 310 312 313 312 313 315 314 313 313 312 312 313 314 314 314 314 314 314 314 314 314 314 314 314 313 313 313 311 312 313 309 310 313 314 315 314 313 312 312 311 311 311 311 312 313 312 311 311 310 311 311 308 309 311 312 311 310 310 311 310 309 310 310 309 309 310 311 311 312 311 312 313 314
324 324 324 323 322 321 320 320 320 319 319 320 321 321 317 313 313 312 310 311 315 317 317 316 314 312 314 314 312 313 313 313 313 313 314 314 314 314 313 313 315 315 312 310 312 312 312 312 312 312 311 311 312 311 311 311 312 312 312 312 312 311 311 311 311 311 310 310 313 314 311 310 310 311 310 310 310 310 311 310 311 312 311 312 312 313 313 313
325 325 324 324 324 324 324 323 323 322 321 321 322 322 320 318 314 312 311 310 314 319 320 319 317 315 316 315 312 312 312 312 312 313 313 313 313 314 312 313 315 316 314 313 314 314 315 317 313 309 308 311 312 311 311 312 311 313 312 312 312 311 312 313 312 314 313 310 312 312 310 310 311 311 310 310 309 310 311 311 311 311 311 313 314 314 313 313
325 325 325 325 324 324 324 324 324 323 322 322 322 322 322 320 314 312 312 312 313 316 318 319 316 314 315 314 312 312 311 311 311 312 313 313 313 313 312 312 314 315 313 313 314 313 315 317 311 309 310 311 312 311 312 313 312 312 312 312 312 312 312 312 312 314 313 314 316 313 310 313 315 314 314 312 309 309 309 309 310 311 313 315 314 314 314 314
325 325 326 325 325 324 324 323 323 323 323 323 323 322 323 319 314 313 312 314 317 316 315 315 313 312 313 312 312 311 310 311 311 311 312 313 313 313 312 311 313 315 313 312 313 312 313 312 309 312 313 311 312 312 313 314 313 312 313 313 312 312 312 312 313 312 313 318 317 312 313 317 317 317 319 319 315 313 310 309 310 312 314 313 311 314 316 315
325 325 325 324 325 324 324 323 322 323 323 323 323 322 323 319 316 314 312 316 323 319 314 313 313 313 311 311 311 310 312 313 311 311 311 312 313 312 312 311 311 313 313 312 311 311 312 311 310 314 315 313 312 312 314 313 312 313 316 316 313 312 313 313 313 312 316 320 313 312 317 317 315 316 319 321 319 318 316 315 312 310 311 311 310 314 316 317
323 323 323 323 322 323 324 324 323 323 323 323 323 322 322 320 316 314 314 320 325 319 314 313 312 312 311 310 310 311 315 316 311 311 311 312 312 311 312 312 310 310 309 310 312 313 313 311 311 312 312 314 313 312 314 312 312 315 315 318 319 315 314 313 312 313 316 317 312 313 316 315 315 315 316 316 315 317 318 317 313 309 309 310 312 315 316 316
322 322 323 324 324 323 324 324 322 323 324 323 323 322 322 321 317 314 318 328 327 317 314 313 311 312 311 310 310 309 311 311 310 312 311 311 312 310 312 312 312 312 308 309 314 313 312 314 314 313 312 314 314 314 315 311 313 316 312 313 317 315 314 313 314 315 314 314 314 313 313 317 319 315 315 314 314 318 317 314 313 309 309 311 313 316 316 315
321 322 323 325 326 325 324 323 321 322 324 323 323 323 321 320 317 314 321 327 324 316 314 313 311 311 310 310 310 309 309 309 310 311 310 311 312 310 312 310 309 312 309 309 313 311 311 313 312 314 316 315 315 315 316 316 314 312 310 312 314 315 315 314 315 317 316 315 315 314 314 316 319 317 319 315 315 321 318 314 313 309 309 312 314 316 315 314
319 320 322 324 325 326 325 323 322 323 324 322 323 323 321 320 317 318 324 325 321 318 313 311 312 310 309 312 311 309 309 310 309 310 310 311 311 309 311 309 308 313 313 310 313 311 309 307 307 312 313 312 315 312 310 312 310 307 312 316 317 317 317 317 318 317 317 317 316 317 315 315 318 319 321 320 318 320 318 317 320 314 309 312 315 315 313 312
317 317 319 321 322 323 324 323 323 324 324 323 324 322 320 320 319 324 328 322 319 320 313 311 313 312 313 314 314 312 310 309 308 310 311 311 312 310 309 310 310 315 317 313 313 312 308 308 310 312 309 308 313 311 306 306 305 307 317 319 316 318 317 318 319 317 316 318 318 317 314 314 318 317 318 319 317 317 316 317 324 321 313 312 315 315 312 312
316 316 316 318 320 322 323 323 323 323 324 323 323 321 320 321 321 325 326 321 323 323 314 313 314 315 316 313 315 316 312 310 308 309 314 313 314 313 313 315 314 316 319 318 317 316 314 313 311 310 308 308 312 314 311 309 307 310 316 315 313 318 317 317 319 316 316 318 315 312 312 313 316 315 314 316 315 316 314 311 315 316 312 311 314 314 312 311
316 316 316 317 319 322 323 323 323 323 323 323 321 320 321 323 322 324 325 323 324 320 314 315 314 314 315 316 322 319 312 314 312 309 313 312 312 316 317 316 314 314 316 317 317 318 319 317 310 309 311 310 311 313 314 314 311 310 313 314 315 317 317 319 321 317 317 319 312 309 312 313 315 316 317 316 313 312 310 309 309 309 309 311 312 312 311 311
316 316 316 317 318 321 322 322 323 322 322 321 319 320 322 322 321 323 325 325 324 321 317 317 316 315 315 318 325 321 315 320 318 312 314 313 313 321 322 315 311 312 313 313 315 317 318 319 316 314 314 312 310 311 316 318 312 310 313 315 316 319 321 321 322 320 319 320 312 307 313 318 317 318 319 318 311 307 307 309 309 308 309 310 310 311 312 312
315 315 316 316 317 319 321 322 323 321 320 319 319 321 323 322 321 322 324 325 325 324 320 317 317 319 319 319 321 318 316 321 319 314 315 315 317 322 324 319 312 311 313 313 317 316 316 320 319 313 309 310 310 309 314 319 314 311 314 315 314 318 321 318 319 321 319 318 313 310 316 319 316 314 315 314 310 307 307 307 306 307 308 308 310 311 311 312
313 314 314 315 316 317 318 320 322 321 320 318 319 321 321 321 322 324 322 321 322 322 321 320 319 321 323 322 321 316 313 315 315 314 313 314 317 318 320 321 314 310 311 315 318 316 315 319 317 310 307 308 309 308 310 313 314 312 312 315 314 314 316 315 317 320 316 316 317 315 317 317 316 317 315 316 317 314 315 313 306 304 307 309 311 311 311 311
310 312 313 314 314 315 316 318 320 321 319 317 319 321 321 319 320 324 321 316 317 319 321 322 321 323 325 324 322 317 313 314 314 314 316 316 316 316 317 318 312 309 311 316 320 318 315 317 315 312 313 309 304 306 308 308 310 314 315 315 312 312 314 314 316 318 316 316 317 317 318 316 318 319 316 319 323 318 319 320 311 306 308 309 310 311 311 311
309 310 311 312 312 314 315 316 319 319 317 317 319 321 321 319 316 318 318 315 316 318 320 322 322 323 325 324 323 320 316 317 316 315 319 320 317 316 319 318 312 308 309 311 317 319 315 316 316 314 315 312 306 309 313 308 306 311 314 312 312 315 316 315 316 317 316 317 318 317 317 316 317 318 316 317 320 317 317 318 317 315 311 308 309 311 312 311
307 308 309 311 312 313 313 316 318 318 316 318 320 320 320 319 316 316 317 316 316 318 320 322 321 321 323 322 322 321 318 318 317 316 319 321 318 315 316 316 312 308 306 308 315 317 315 316 318 315 313 314 312 313 317 315 309 307 308 310 312 314 315 315 316 317 316 317 318 318 317 317 317 316 316 317 316 315 316 316 319 320 310 306 310 311 311 311
305 308 310 312 314 313 313 315 317 316 317 318 319 319 318 318 316 316 317 316 316 318 319 321 322 320 322 321 320 321 321 320 319 318 319 321 320 318 317 315 314 312 309 309 314 315 315 316 316 315 315 314 315 316 316 317 315 311 310 311 311 311 314 315 314 314 316 315 316 318 317 319 322 319 316 317 315 313 313 316 320 315 307 308 311 310 311 311
305 308 310 311 314 314 313 315 316 314 317 318 317 317 316 316 316 315 316 316 316 317 317 319 321 319 319 320 319 319 320 321 321 320 320 321 321 320 318 315 314 315 313 313 315 316 316 317 316 316 317 316 316 318 318 319 320 317 314 313 312 312 314 315 314 315 315 314 315 317 316 319 326 325 318 315 315 314 312 314 316 309 307 311 312 311 311 310
306 309 311 311 313 314 314 315 315 314 315 317 316 316 316 316 316 315 315 315 315 315 315 316 318 318 317 318 318 318 319 321 321 320 319 320 319 318 317 314 311 313 314 317 319 317 317 318 316 316 318 317 316 317 317 317 317 316 315 314 314 313 313 315 316 316 316 314 315 316 316 319 324 322 317 315 315 312 307 307 310 309 309 312 311 310 309 307
306 309 311 312 312 314 315 316 315 315 315 315 315 315 315 315 315 315 314 314 314 315 315 316 316 316 317 317 317 318 319 319 319 319 318 318 318 317 316 314 312 312 314 318 319 315 313 316 317 316 317 317 317 317 315 313 313 314 314 314 314 313 313 314 315 315 316 315 316 317 317 319 322 319 314 314 313 311 308 308 309 308 307 307 305 304 303 302
304 306 307 311 314 314 314 316 316 316 315 314 314 315 315 314 314 315 314 314 315 315 315 316 315 315 316 317 316 317 317 317 316 316 317 317 317 314 312 312 311 312 314 315 315 313 312 315 318 317 316 316 315 315 313 311 312 314 314 314 313 313 313 313 314 314 315 314 315 317 316 318 323 321 316 315 314 312 312 309 304 301 301 299 298 297 298 299
301 302 302 305 311 312 312 313 314 314 315 315 315 315 315 314 314 315 315 313 313 313 314 315 313 311 312 313 314 314 314 314 315 315 316 316 315 311 308 309 310 310 311 310 310 312 313 315 317 316 315 315 313 313 313 314 313 311 312 314 313 313 313 313 313 314 314 314 315 315 315 315 320 320 317 315 314 312 309 303 298 296 296 295 294 295 295 296
299 303 303 302 305 307 308 310 312 313 314 314 314 314 314 315 314 314 314 314 313 313 313 313 310 309 310 311 312 313 313 312 313 314 314 315 316 310 305 306 307 306 307 307 306 309 311 312 315 314 314 314 313 312 314 316 314 312 312 314 313 313 312 312 313 314 314 315 314 314 315 314 315 317 315 312 309 306 301 296 295 295 294 293 294 294 294 294
298 302 303 303 304 304 306 308 308 310 311 311 313 313 312 313 313 312 313 313 312 312 312 311 311 311 312 312 313 313 313 313 312 312 311 311 313 309 305 306 305 304 305 304 303 307 310 311 313 313 313 313 313 313 313 313 313 312 313 313 313 312 311 311 312 312 312 314 314 314 315 313 313 314 311 304 301 299 295 294 294 293 292 293 293 293 293 293
299 300 300 301 303 303 305 305 303 304 306 307 309 311 311 311 310 311 312 311 310 312 312 310 310 311 312 312 312 312 312 313 312 312 311 310 309 309 308 307 303 301 302 302 302 306 309 309 310 311 311 312 311 310 310 310 310 311 311 312 312 312 312 312 312 312 312 312 312 312 313 313 312 310 303 297 296 297 294 293 293 292 292 292 292 293 293 293
296 297 297 298 299 300 301 301 300 301 303 304 307 308 309 309 309 309 309 309 310 310 310 311 311 310 309 309 309 310 311 311 311 311 309 307 307 308 308 307 304 300 300 300 302 304 306 307 309 309 308 307 307 307 307 308 308 309 310 311 311 310 311 311 311 311 311 311 311 311 311 312 307 301 298 295 294 295 294 292 292 292 292 292 292 292 292 292
294 296 296 297 297 297 297 298 298 299 301 302 305 306 307 308 309 308 307 308 309 309 310 311 309 307 306 306 306 307 307 306 307 308 304 304 306 305 304 305 304 300 298 300 302 304 306 307 307 305 304 304 304 305 306 306 307 307 308 308 308 308 309 309 309 310 310 311 310 309 311 310 301 295 295 295 294 294 294 293 292 292 292 292 292 292 292 292
294 295 295 295 295 296 297 296 296 298 299 301 303 305 306 307 305 303 304 304 304 305 305 303 302 302 302 304 304 304 303 301 301 301 299 299 302 301 300 300 300 299 299 300 302 304 304 304 303 302 302 302 303 303 303 304 304 304 305 306 306 307 307 306 307 308 308 308 309 309 310 306 297 293 294 294 294 294 294 293 293 292 292 292 292 292 292 292
294 293 294 294 294 295 296 296 296 297 298 299 300 301 302 302 299 299 302 302 299 299 299 297 298 299 299 301 301 300 299 298 297 297 296 296 297 297 297 298 298 298 299 299 300 301 300 300 300 300 301 301 301 301 301 301 301 301 302 304 304 304 304 304 306 305 303 303 305 306 303 298 294 293 293 293 294 293 293 293 293 292 292 292 291 291 291 291
Wind_Speed
8 8 8 7 7 7 6 6 5 5 5 5 4 4 4 4 3 4 4 5 5 6 7 7 8 9 9 11 12 12 14 15 16 18 18 12 7 8 8 9 10 9 8 8 6 6 5 6 7 6 6 5 4 4 4 5 6 4 3 2 3 3 4 6 8 7 4 4 5 4 6 4 8 12 10 9 12 16 19 22 21 21 24 25 26 26 26 26
9 9 9 9 8 8 8 7 7 7 6 6 6 6 6 5 5 5 5 6 6 7 8 8 9 10 10 12 12 14 14 16 18 16 11 6 4 7 7 7 11 12 10 9 7 6 6 6 7 8 8 6 4 4 4 6 7 5 3 2 4 5 6 7 9 8 5 5 7 10 14 8 10 12 8 7 10 13 15 17 18 23 28 27 28 28 27 27
10 10 10 9 9 9 9 9 8 8 8 8 8 8 7 7 7 7 7 8 8 8 9 10 11 11 12 13 13 15 15 18 16 7 8 7 6 11 10 6 8 12 12 10 8 7 7 6 6 8 9 7 4 4 4 5 7 5 3 2 7 8 6 9 12 12 12 12 9 13 14 9 14 15 7 6 9 12 13 16 15 21 27 24 22 24 26 27
11 10 10 10 10 10 10 10 9 10 10 10 10 10 10 10 9 9 9 9 10 10 11 11 12 13 14 15 15 15 16 18 8 3 9 13 9 11 10 7 6 10 14 13 10 10 9 8 7 8 8 6 4 4 5 7 7 4 6 5 6 5 4 11 16 17 17 14 11 12 10 10 17 15 10 7 7 10 16 18 15 19 24 22 18 20 23 26
12 12 11 11 11 11 11 11 10 11 11 11 11 12 12 12 12 12 11 11 12 12 12 13 14 14 15 16 16 16 15 10 1 2 13 16 9 8 8 8 7 7 12 14 13 11 10 9 8 8 7 4 3 2 4 10 9 3 8 11 9 5 4 11 13 13 13 12 12 9 8 13 16 15 16 10 5 14 24 22 19 23 26 25 23 22 24 27
13 13 13 13 13 13 13 12 12 12 12 12 12 13 13 14 14 14 14 14 14 14 15 14 15 15 17 17 17 17 10 4 5 9 17 15 8 7 8 10 9 7 9 12 14 12 10 9 8 8 5 2 4 5 5 10 11 5 7 11 15 13 10 14 14 12 12 11 11 9 12 18 14 16 19 14 16 30 38 32 30 33 33 31 30 29 30 30
14 14 14 14 14 14 14 14 14 14 14 14 14 15 15 15 16 16 16 16 16 16 16 16 17 17 18 18 19 17 9 10 16 17 16 12 8 8 9 11 10 9 8 10 14 13 11 11 11 9 4 1 4 8 6 7 11 7 5 6 14 17 18 23 20 17 18 16 19 17 17 21 15 13 15 14 26 40 44 39 38 39 36 33 32 31 30 28
14 14 14 15 15 15 15 16 16 15 16 16 16 16 16 17 17 18 18 18 18 18 18 18 18 19 19 19 20 15 12 17 19 15 12 9 9 11 13 15 12 11 9 10 11 12 12 12 14 10 4 4 5 6 5 5 7 7 8 8 10 13 18 24 22 20 21 22 25 19 17 27 26 17 17 25 37 43 41 39 37 35 31 28 27 25 24 24
14 15 15 16 16 16 16 17 17 17 17 17 18 18 18 19 19 19 19 19 19 19 20 19 19 20 20 21 20 14 16 20 15 10 10 10 14 16 18 18 15 12 10 10 10 12 13 13 14 12 7 6 5 5 4 4 5 8 13 12 10 13 18 22 22 21 20 23 21 11 14 30 28 15 18 30 37 35 31 32 31 28 26 25 24 23 22 23
16 16 16 17 17 17 18 18 18 18 18 19 19 19 20 20 21 21 21 21 21 21 21 20 20 21 20 23 17 11 17 19 13 14 14 17 20 21 22 20 16 13 12 12 11 13 14 12 10 9 10 8 5 5 5 5 5 6 9 12 14 17 21 19 17 19 17 20 20 11 13 27 22 6 10 27 34 32 28 31 31 27 29 30 29 27 25 26
17 16 17 17 17 18 18 19 19 19 20 20 20 20 21 22 22 22 23 22 22 22 22 21 21 21 21 23 18 15 22 23 20 22 21 22 23 23 24 20 18 16 14 14 12 12 13 13 10 5 6 6 4 4 6 8 7 8 8 11 16 14 19 18 14 19 14 14 19 17 12 20 14 3 17 36 38 32 29 32 33 31 34 34 32 32 29 30
17 17 17 18 18 18 19 20 21 21 21 21 21 22 22 23 23 23 24 23 23 23 23 21 20 21 20 23 27 27 28 26 24 24 23 23 24 25 24 22 20 17 15 15 13 12 11 13 14 11 7 5 2 2 5 6 5 9 6 6 12 9 14 16 12 13 10 7 10 11 6 10 7 11 30 41 34 29 28 30 34 35 36 34 32 33 31 31
18 18 18 18 19 19 20 21 21 22 22 22 23 23 23 24 24 25 25 24 23 23 23 21 20 21 18 22 32 30 27 25 24 24 24 25 25 26 26 24 22 17 16 15 13 13 12 12 13 15 13 8 3 3 5 4 4 9 2 0 8 7 9 8 4 2 4 5 5 8 3 7 7 18 36 39 30 26 26 29 34 34 33 30 30 32 32 33
16 17 17 18 18 19 20 20 21 22 22 22 23 24 24 24 25 26 26 24 24 23 23 21 20 19 16 23 31 29 27 27 27 26 26 25 26 27 27 25 22 18 15 15 15 13 12 10 11 13 14 12 9 8 6 5 4 5 2 1 3 3 6 4 2 1 3 5 10 10 5 9 9 20 35 38 30 24 23 27 30 30 30 29 31 33 35 37
13 14 15 15 16 16 17 18 19 19 20 21 22 22 23 23 24 24 24 24 23 22 22 20 20 17 14 23 29 26 26 27 26 25 23 23 24 26 26 23 19 17 15 15 14 13 11 9 9 10 8 11 10 5 4 4 3 2 2 4 2 3 6 9 6 6 8 5 10 10 5 8 9 20 32 30 24 19 19 24 25 28 33 33 36 38 39 42
11 11 12 12 13 14 15 16 16 17 17 18 19 20 21 21 21 21 21 21 19 20 20 18 19 14 9 16 23 23 25 26 25 24 23 22 22 24 24 20 15 14 13 13 13 11 10 8 8 8 5 6 5 1 3 4 4 3 2 5 5 6 5 7 9 9 10 4 5 9 6 6 7 17 26 23 22 19 15 22 27 33 38 39 41 41 42 45
9 9 10 10 11 12 13 13 14 15 15 17 18 18 19 20 19 19 19 18 17 16 16 15 14 11 10 16 21 24 25 22 22 22 22 22 21 22 21 18 14 12 11 10 11 9 9 9 6 5 4 2 2 4 1 2 4 3 2 4 5 7 5 5 8 7 3 5 6 7 8 11 11 14 25 29 30 26 21 25 30 36 40 42 44 43 44 47
7 8 8 9 9 10 11 12 13 14 14 15 17 18 18 18 16 17 17 15 13 10 9 11 8 3 10 17 18 19 18 16 17 16 17 19 19 19 17 15 12 10 8 7 8 9 9 7 4 1 1 1 1 4 3 6 7 7 6 6 4 4 6 6 7 5 3 4 6 5 9 15 14 13 24 35 34 28 30 33 32 36 39 41 43 43 46 48
7 7 8 8 9 10 10 12 13 14 15 15 16 17 16 15 14 13 11 9 7 4 4 8 10 4 7 12 13 15 17 18 18 17 18 17 14 14 13 11 10 9 8 4 5 10 9 4 3 2 2 6 8 8 11 13 12 10 8 5 6 6 7 8 11 8 4 8 7 9 17 16 15 14 16 31 33 25 32 37 34 35 35 37 40 44 46 48
7 7 8 9 9 10 11 13 14 15 17 16 17 16 12 11 9 6 8 10 12 12 13 15 16 17 18 19 20 19 20 20 20 19 17 15 11 10 11 10 8 8 6 4 4 7 8 5 3 6 10 14 14 12 15 14 7 5 3 5 7 8 9 9 12 10 2 4 8 11 20 18 15 14 12 26 31 21 24 31 35 36 35 35 37 42 47 49
8 8 9 9 10 11 11 13 15 16 17 18 19 15 10 9 6 5 12 17 19 20 23 25 25 27 28 28 26 23 20 18 20 20 16 14 10 7 10 10 7 4 4 4 4 2 5 6 8 12 15 13 8 9 11 9 4 5 4 7 7 6 12 12 11 13 2 1 7 8 18 20 14 13 14 21 22 19 23 23 29 37 38 37 36 41 48 50
9 10 10 10 11 11 12 13 15 16 16 16 17 15 12 12 9 10 11 13 21 24 24 27 29 33 34 32 33 30 21 15 18 18 15 13 12 9 9 9 5 3 3 4 3 1 3 6 11 15 12 4 1 3 5 6 6 7 5 5 7 5 10 11 8 10 3 1 7 7 16 18 12 13 16 19 18 23 31 25 26 38 40 40 41 43 45 46
12 11 11 12 12 12 12 13 15 15 15 15 16 15 15 15 14 15 11 8 17 22 23 27 29 33 34 32 34 31 23 16 16 17 16 14 13 11 10 9 4 3 4 6 7 5 5 7 13 17 10 4 5 3 5 3 5 6 6 5 8 4 5 8 4 6 4 3 7 9 16 15 11 14 15 21 26 25 32 32 31 37 39 45 48 43 39 41
13 13 13 13 13 13 12 12 14 13 13 14 15 14 15 16 15 16 13 7 9 13 20 26 24 25 27 26 25 22 19 17 15 13 15 16 13 8 8 8 5 3 6 10 12 11 11 7 7 9 8 8 9 5 4 5 6 7 8 7 10 10 9 10 5 7 6 5 5 6 14 13 6 9 8 14 18 17 24 29 29 35 43 47 45 42 42 43
16 15 15 15 15 14 13 13 12 11 11 13 13 13 15 16 15 16 12 5 5 7 11 15 12 12 15 15 14 11 10 13 15 13 12 16 16 8 5 8 6 5 9 10 10 11 11 8 3 4 5 7 8 7 7 7 8 8 7 11 16 15 11 10 7 7 6 5 4 5 8 11 2 6 6 6 4 7 13 14 20 36 44 36 31 38 43 41
18 16 16 17 17 15 14 14 11 9 11 12 12 13 14 15 14 15 9 2 4 4 3 4 3 2 3 5 5 7 4 5 10 15 14 15 18 11 3 5 5 4 7 6 4 5 5 7 6 6 5 6 5 6 7 9 7 9 5 11 15 12 9 10 7 3 2 4 3 4 1 9 7 3 8 8 3 7 9 9 19 32 33 24 24 35 38 36
18 17 16 17 17 15 15 13 12 11 11 11 12 12 12 12 12 13 7 2 4 2 3 3 3 1 1 3 7 9 3 3 1 8 15 15 16 12 4 4 2 2 4 3 3 3 3 3 3 4 4 6 5 6 7 10 6 7 5 7 9 9 8 6 4 4 4 4 3 1 4 6 13 6 5 6 4 7 12 14 17 18 18 22 28 33 33 34
19 18 17 18 17 15 15 15 14 12 10 10 11 10 10 10 11 9 4 3 4 3 4 2 3 2 0 6 11 7 1 2 2 1 9 12 13 8 4 5 5 3 3 4 4 4 3 4 5 6 5 4 6 5 7 12 6 6 2 4 6 5 5 5 5 4 1 4 4 3 5 2 12 7 3 3 3 7 13 15 13 10 13 22 26 27 28 29
20 19 18 20 19 17 17 18 15 12 10 9 10 9 9 9 8 5 2 3 2 3 2 1 3 1 2 6 8 3 4 4 2 2 4 7 10 6 2 4 6 4 4 5 7 6 1 2 6 8 6 5 7 3 7 12 7 4 4 5 4 3 3 5 4 3 3 4 5 5 5 2 11 9 4 4 2 7 10 10 8 9 15 20 20 20 22 23
20 20 19 20 21 19 19 19 15 12 10 8 9 8 7 6 3 2 4 4 2 1 1 2 1 1 2 4 1 4 2 2 2 5 4 4 8 5 1 2 2 2 3 3 6 9 3 2 3 5 6 6 5 3 4 9 5 3 6 4 5 4 4 4 1 4 3 6 5 10 11 5 7 8 3 3 4 5 6 7 6 9 12 13 14 18 19 20
19 20 20 21 22 21 20 18 15 12 10 8 8 5 4 3 2 3 7 2 2 2 2 1 1 2 4 2 2 3 1 2 3 6 2 3 3 2 1 1 0 2 3 4 6 7 3 2 1 5 7 6 6 3 0 2 4 4 4 3 3 4 3 4 4 3 2 7 5 10 12 9 7 7 1 4 5 5 6 6 7 7 9 14 20 23 21 22
21 21 21 21 22 22 21 19 14 11 9 7 6 1 4 3 2 6 4 4 3 2 2 0 1 2 2 2 1 2 0 1 2 4 3 2 2 2 2 4 3 1 4 3 3 5 2 6 4 2 6 8 6 2 2 3 4 4 3 3 1 4 3 3 3 1 4 7 5 6 7 5 11 9 4 9 12 10 8 9 10 9 12 22 27 28 26 24
22 22 21 21 22 22 22 20 16 12 8 6 6 5 6 2 6 3 1 2 2 1 2 1 0 2 2 1 2 3 0 2 3 3 2 3 2 3 5 6 5 2 4 2 3 5 3 4 3 3 4 8 10 5 3 2 5 6 5 5 4 2 2 3 3 2 4 5 3 3 3 3 9 7 7 12 13 10 6 9 14 14 16 22 23 23 23 18
23 22 21 21 22 23 22 21 19 15 10 8 7 5 3 8 7 1 2 5 3 2 1 3 1 1 2 3 4 3 2 3 4 4 1 3 1 3 4 6 6 4 2 2 3 2 4 7 4 5 2 8 12 8 4 4 5 6 5 5 5 5 4 4 4 4 6 4 2 1 3 4 4 3 6 10 9 9 9 10 13 15 16 15 14 14 13 12
24 23 23 22 22 23 22 21 19 16 12 10 6 2 5 9 6 2 4 5 2 4 4 0 2 2 3 3 3 3 6 5 3 5 3 3 3 4 3 4 7 6 3 3 2 2 4 8 5 2 1 8 8 3 3 5 2 3 3 3 3 4 4 3 5 5 3 3 2 2 4 5 4 6 7 6 7 10 12 11 11 14 13 9 8 9 11 16
25 25 25 25 23 21 21 22 20 18 16 11 4 5 9 7 4 3 3 3 2 2 2 3 2 3 5 3 3 3 4 3 1 2 3 3 3 4 4 3 6 9 7 5 2 1 3 6 3 2 1 5 4 2 2 3 2 1 3 2 4 4 5 2 5 2 0 4 6 5 7 6 5 10 7 3 3 6 7 7 7 7 4 2 6 12 17 23
25 24 25 28 25 20 19 20 20 21 19 12 4 8 6 4 6 6 3 2 1 2 2 3 4 4 4 3 3 2 1 1 2 2 2 2 3 4 4 4 5 11 11 6 2 3 3 5 5 2 2 3 2 1 1 2 4 4 3 4 2 1 2 2 2 2 2 8 7 7 13 10 6 8 5 7 8 8 7 7 6 6 8 8 12 19 23 26
22 23 26 27 25 21 19 17 19 23 18 9 8 11 5 4 7 6 4 3 1 1 3 5 5 3 4 4 4 2 3 3 2 2 3 3 3 4 5 4 5 9 10 6 2 2 1 4 7 4 4 3 1 2 1 1 3 4 3 1 2 2 3 1 2 2 5 9 5 7 13 10 7 10 9 8 9 8 7 7 6 6 7 11 17 24 28 30
15 16 18 16 15 18 20 18 21 24 14 4 9 10 4 5 9 9 10 7 2 2 4 5 5 3 3 4 3 2 4 4 3 3 3 3 4 4 4 2 3 4 6 7 5 2 1 2 5 1 3 1 3 1 3 3 1 1 0 1 1 3 3 2 2 2 3 7 7 7 9 7 7 10 11 8 6 5 7 6 5 6 8 13 19 23 27 32
7 7 7 5 5 12 19 20 22 21 9 4 9 7 1 3 8 13 17 11 4 4 4 4 4 5 5 4 4 3 3 3 4 3 3 3 4 4 3 2 3 2 1 3 3 2 2 3 5 1 1 1 1 3 6 5 3 2 1 2 2 2 1 1 2 2 3 6 7 7 9 7 4 6 10 8 5 4 7 7 6 7 12 19 21 23 29 35
6 3 3 6 5 9 21 21 15 11 4 5 8 7 5 5 5 7 13 14 10 8 6 4 4 6 6 5 4 3 2 2 4 5 3 4 5 4 4 5 6 5 3 3 1 2 2 3 5 3 3 5 6 6 7 8 7 6 4 5 5 4 3 5 6 5 5 6 6 8 10 7 3 6 11 11 7 6 7 6 5 10 19 26 28 30 34 35
9 2 1 6 6 12 22 15 7 5 4 6 8 6 6 7 6 4 7 11 9 6 6 5 6 6 6 7 7 3 3 4 4 5 5 5 7 6 5 7 8 7 4 2 3 4 3 2 4 6 7 9 11 8 7 8 6 3 4 5 5 6 5 7 10 6 5 6 6 8 9 5 5 9 13 14 15 12 6 4 6 14 21 24 26 27 26 24
8 5 4 5 5 15 18 6 5 6 4 5 8 8 6 5 4 3 4 6 6 4 4 4 5 7 7 7 8 5 5 5 6 8 7 5 8 10 12 11 6 5 2 2 3 3 2 2 3 6 6 7 11 9 4 3 2 2 4 4 6 7 8 10 8 4 5 8 6 8 10 5 6 10 12 12 14 13 10 8 9 13 16 18 19 21 21 21
6 10 8 6 9 18 14 4 5 7 5 6 7 9 11 8 6 8 6 4 5 4 3 4 4 6 6 5 6 7 6 5 7 9 8 5 5 7 7 5 1 2 2 3 2 2 2 2 2 3 5 5 7 7 4 1 1 3 5 6 7 8 10 10 6 3 6 9 11 12 11 5 3 5 6 8 10 11 12 14 21 21 21 23 24 26 27 26
2 7 9 9 16 18 11 5 6 4 5 8 8 9 11 8 9 15 13 7 8 6 3 4 4 3 3 3 3 4 5 5 5 5 3 3 3 3 6 8 4 1 1 5 4 1 3 3 4 3 6 8 8 7 4 2 2 2 3 7 8 9 11 9 6 6 8 10 12 12 11 9 5 5 7 9 11 12 12 21 28 24 22 24 26 28 30 29
1 1 3 5 13 16 15 12 7 2 3 6 7 7 10 9 8 11 11 9 12 11 7 6 4 3 2 3 4 5 5 5 5 3 2 2 3 2 7 9 7 6 6 8 8 2 1 2 6 9 10 10 11 10 6 4 4 4 5 7 7 7 9 8 6 8 10 10 12 12 13 12 7 6 8 9 11 11 11 15 19 21 24 26 27 28 30 31
1 1 1 1 5 9 12 12 7 2 3 4 3 3 7 9 6 5 8 7 8 9 7 6 6 5 5 5 6 6 6 7 6 5 5 4 3 3 6 5 6 9 7 6 9 4 1 2 5 11 13 13 14 14 12 12 12 11 11 11 10 10 9 9 10 12 11 11 11 10 9 11 9 7 7 7 9 8 7 9 13 17 21 23 27 30 31 32
1 1 2 1 2 3 4 5 5 5 6 7 3 2 6 8 6 5 5 3 2 4 4 4 5 8 10 9 7 4 4 6 6 4 4 2 1 3 6 3 3 9 9 5 7 4 2 3 5 10 13 10 11 13 12 11 11 10 11 12 13 14 14 15 17 16 13 11 11 9 11 15 13 7 4 7 6 5 7 9 12 16 20 23 26 28 29 31
3 4 3 1 2 3 3 5 7 5 5 6 3 4 8 11 11 10 6 3 4 4 5 7 6 4 5 6 5 3 3 5 6 4 2 0 1 1 3 3 1 8 10 5 4 1 2 3 4 7 9 7 9 11 11 11 11 11 10 10 10 13 17 18 17 15 14 15 15 15 18 17 8 3 5 5 5 4 5 8 13 17 20 22 23 23 24 26
3 3 2 3 3 4 5 5 5 3 3 4 4 6 9 10 10 9 6 5 6 6 5 7 6 1 2 1 0 3 3 3 4 3 1 2 0 1 1 2 1 5 7 3 2 3 4 3 4 5 6 8 12 12 12 12 12 12 12 11 13 17 18 16 14 13 15 18 17 16 17 11 1 4 3 4 6 4 4 7 11 14 16 18 20 21 21 21
7 5 3 3 2 3 2 1 1 2 3 4 5 4 6 8 6 5 3 1 1 0 1 2 4 4 2 2 1 1 1 4 3 2 2 1 3 2 2 2 2 5 5 2 1 2 3 3 5 6 6 9 12 13 13 12 11 12 13 15 18 19 16 14 14 12 12 12 11 12 11 4 2 3 2 2 4 5 4 5 6 7 12 15 17 19 19 19
9 8 5 2 2 3 1 1 0 2 3 2 1 2 3 3 6 7 4 1 9 10 8 7 5 4 3 3 3 1 2 3 1 5 7 8 10 11 10 11 10 7 4 3 2 2 3 3 4 5 5 7 12 13 9 8 9 11 11 12 16 17 15 17 14 7 3 3 5 5 3 1 1 2 3 3 3 3 4 4 2 2 8 13 16 18 18 18
Wind_Direction
310 311 311 310 310 308 307 309 312 313 318 319 323 327 328 336 343 347 348 352 353 351 351 353 351 349 349 346 345 345 341 338 332 324 319 319 300 281 274 249 240 246 242 234 235 239 234 217 214 211 210 210 218 223 203 196 176 153 111 127 229 202 201 195 189 202 186 261 274 299 322 300 286 296 289 282 266 265 270 263 259 259 259 263 268 271 272 274
306 308 307 307 305 303 302 301 302 303 305 306 309 310 313 318 318 323 327 329 332 332 335 336 337 336 338 338 338 337 336 334 329 327 337 355 1 343 322 274 252 247 245 242 240 240 240 229 221 216 211 213 222 216 204 199 183 168 119 151 229 206 208 202 196 205 201 254 274 289 300 289 274 287 292 282 267 271 274 266 261 263 266 267 267 270 272 273
303 304 304 303 302 300 300 298 298 297 298 299 299 301 303 305 307 312 314 316 319 320 323 325 327 327 329 331 332 334 335 332 326 349 33 20 352 343 338 313 259 243 241 239 238 234 230 226 229 225 216 218 223 211 200 191 194 200 157 200 243 220 228 234 229 233 241 263 282 290 292 277 276 284 274 266 284 281 267 263 259 259 271 277 273 272 272 271
300 300 298 297 297 297 295 295 295 294 294 294 295 297 297 299 300 302 304 307 309 311 314 317 319 320 322 324 327 330 334 330 316 116 18 350 334 332 339 334 287 251 241 236 234 230 222 215 222 222 216 224 226 217 214 200 200 192 169 208 238 199 233 246 245 254 258 267 269 275 290 285 286 284 254 256 305 286 265 267 262 263 280 290 287 279 274 272
297 296 295 295 294 294 293 293 291 291 290 290 291 292 294 296 297 299 301 301 303 305 307 310 313 315 316 318 320 326 337 340 223 163 335 333 329 329 343 340 319 276 251 238 236 231 224 216 211 210 213 231 205 194 237 211 195 187 211 232 242 202 237 259 260 270 268 265 265 270 284 286 290 281 258 238 224 266 275 280 280 281 287 291 289 283 277 273
292 293 292 293 293 293 293 292 292 291 289 289 289 289 290 292 294 296 296 298 300 301 303 306 309 310 312 314 313 317 326 307 279 302 315 317 309 315 335 334 325 297 265 242 238 234 226 213 203 204 202 237 197 195 241 213 197 233 245 239 251 241 245 266 267 272 275 266 263 269 280 285 288 284 272 230 228 269 282 283 282 285 285 286 286 280 277 274
288 289 290 290 290 291 291 291 292 291 291 291 289 289 289 289 290 291 292 294 295 297 300 301 304 305 307 309 307 308 289 272 294 301 303 303 291 300 317 322 321 301 279 250 240 231 226 212 207 208 190 269 222 211 241 222 201 229 269 248 256 252 251 266 269 269 274 271 271 276 283 282 270 277 284 246 254 278 287 287 284 285 286 284 281 279 278 277
286 287 287 288 287 288 289 289 289 290 290 290 290 290 290 290 289 289 290 291 292 294 295 297 299 300 303 304 304 299 275 285 301 299 297 297 291 298 305 311 313 300 286 266 250 236 233 222 217 214 198 239 226 212 230 238 215 215 246 255 259 260 263 273 277 275 275 275 277 278 273 272 267 269 277 267 272 282 287 290 288 287 287 282 277 277 278 278
284 285 285 286 287 287 288 288 288 288 289 289 290 290 290 290 289 289 289 289 290 290 291 294 294 296 298 297 298 291 281 295 304 294 294 297 298 298 296 302 304 296 284 270 255 238 235 232 230 227 236 249 235 233 206 217 238 215 233 255 267 268 274 279 279 277 278 276 272 262 260 269 273 279 271 269 277 285 288 288 289 289 287 283 279 280 279 279
284 284 285 286 286 287 288 288 288 288 289 288 288 289 289 288 288 288 287 287 287 287 288 288 289 291 291 290 289 278 286 297 298 293 295 294 295 293 291 295 294 287 277 266 253 243 238 238 243 239 249 260 250 240 197 197 241 248 257 274 275 276 281 279 276 277 277 273 258 224 247 265 271 290 264 271 280 284 285 285 286 286 286 288 286 285 283 282
283 283 284 284 284 285 285 286 286 286 286 286 286 286 285 285 285 284 284 284 284 284 284 283 284 283 283 283 270 262 285 292 291 292 292 291 290 286 287 288 285 282 272 263 252 249 247 241 242 232 239 246 246 239 221 227 251 286 312 301 285 291 294 280 270 273 264 269 254 220 238 271 275 250 251 271 282 281 279 283 285 286 287 290 289 289 287 286
282 282 282 282 283 282 283 284 284 285 284 284 284 283 283 282 282 282 281 282 282 282 282 280 280 278 279 277 265 269 286 287 286 287 285 286 285 283 285 282 280 276 267 263 253 248 244 240 236 228 230 227 257 286 236 244 273 295 324 312 294 319 308 282 266 263 232 246 252 202 240 283 259 239 258 273 281 277 278 281 285 288 290 292 291 290 288 289
281 281 282 282 282 282 283 283 283 284 284 284 283 282 282 282 281 281 281 281 282 281 281 281 279 277 276 272 272 278 284 282 281 280 280 282 281 280 280 277 275 268 262 259 253 247 237 237 231 228 238 234 246 263 261 298 308 294 314 234 302 330 311 273 220 228 203 230 192 153 254 266 230 248 266 279 280 277 279 279 284 288 288 289 289 288 286 288
282 282 283 284 285 286 286 286 287 287 287 287 286 285 284 283 282 282 283 282 281 280 280 280 278 277 269 268 278 283 281 280 279 277 278 279 278 277 275 273 271 265 260 252 248 247 238 236 227 228 240 239 250 265 286 325 322 298 297 213 312 304 287 277 157 132 293 256 173 158 257 254 252 260 268 280 280 276 276 274 280 283 283 285 284 284 283 284
289 290 291 291 292 292 292 293 294 293 294 293 291 290 288 287 286 284 284 282 280 278 276 275 273 272 267 272 278 281 280 280 279 279 278 274 271 271 271 271 269 262 254 245 242 243 238 228 215 219 237 244 250 267 318 339 352 3 289 288 297 211 268 299 292 230 240 253 169 170 253 256 259 263 269 282 283 276 270 271 277 279 281 282 280 280 279 281
301 302 300 301 301 301 302 302 303 303 303 302 300 300 297 295 293 290 288 284 280 275 269 268 267 261 260 277 278 276 279 279 281 282 276 272 267 264 265 266 265 257 245 238 237 237 228 209 206 217 230 246 231 162 20 349 330 344 212 259 265 244 279 312 299 248 217 215 186 202 243 266 259 262 272 284 287 285 272 272 276 277 280 280 279 279 278 279
310 310 309 310 308 308 311 311 312 311 311 312 308 308 307 304 301 297 292 287 280 270 262 258 259 256 252 266 273 275 279 282 283 282 276 273 266 259 257 254 252 245 234 227 227 218 201 191 194 221 231 240 125 113 27 290 271 293 232 237 246 250 274 300 300 294 203 177 222 238 240 254 259 271 281 281 283 287 279 271 273 275 278 278 279 278 277 278
318 319 317 315 313 315 317 318 321 319 322 324 319 318 317 312 309 303 295 289 279 265 259 241 220 243 259 254 261 274 283 286 283 281 277 271 261 254 249 243 239 227 207 203 209 189 183 186 168 183 297 284 134 135 204 231 223 236 239 253 279 260 254 258 268 299 338 234 237 278 259 256 263 271 279 279 279 281 279 277 274 274 274 275 277 276 276 275
328 329 326 323 323 324 325 327 331 331 331 334 332 329 325 323 319 307 298 287 261 244 259 225 199 206 261 257 261 273 281 282 280 275 269 267 260 247 232 225 217 193 168 164 198 182 172 146 109 147 206 229 219 183 206 224 220 230 238 253 280 276 253 243 253 259 289 281 267 271 269 266 270 267 269 277 279 274 276 281 280 275 273 273 274 274 274 273
328 333 332 331 329 330 333 333 336 340 338 340 343 342 341 344 336 309 304 291 271 268 271 258 245 248 258 268 272 274 275 275 273 268 262 260 253 228 203 190 177 173 169 158 186 182 171 173 177 194 208 221 223 202 213 231 238 258 262 258 260 269 268 256 266 268 231 283 260 249 269 272 269 271 264 272 277 273 269 276 278 277 275 273 272 273 275 274
317 321 325 328 328 330 336 337 339 343 345 346 350 356 5 3 350 309 312 302 290 284 277 274 265 258 262 267 267 266 266 267 266 261 259 249 230 205 189 174 148 172 199 145 139 157 171 203 216 213 217 224 225 208 222 246 282 280 253 267 265 250 267 266 269 276 250 256 257 241 269 273 266 270 267 266 272 266 258 261 272 279 279 276 274 273 275 277
300 306 312 317 321 327 333 338 338 341 347 347 350 1 5 354 337 317 315 297 292 293 283 277 267 259 263 263 259 257 255 260 262 254 250 232 207 199 188 166 154 186 167 131 135 217 212 230 233 228 232 268 317 168 193 230 241 252 244 273 275 249 276 275 262 282 309 212 273 280 274 274 265 257 255 254 252 255 259 257 261 270 276 278 275 272 273 277
287 294 301 305 309 316 324 332 333 336 342 344 348 356 356 347 339 329 320 278 285 293 283 273 264 258 261 259 255 252 244 245 255 251 243 221 198 200 187 157 154 163 153 183 198 212 227 236 235 233 233 252 261 167 130 223 239 230 219 245 266 252 270 269 263 322 332 239 271 294 284 279 260 246 243 246 248 253 262 262 259 261 266 271 272 272 274 275
279 283 287 292 296 301 309 318 323 327 334 343 347 347 348 344 341 335 321 276 273 285 274 268 261 257 260 259 255 250 240 237 245 251 242 219 194 190 193 166 146 163 195 205 207 222 235 236 226 219 209 211 239 233 173 245 260 228 208 217 252 251 242 252 289 343 328 291 298 313 297 290 233 218 236 248 252 254 258 261 263 261 258 261 267 273 275 275
271 274 279 284 285 289 297 305 312 318 326 339 340 339 345 343 342 341 330 295 279 276 261 260 260 259 257 259 256 241 233 238 239 242 238 219 202 185 184 176 167 208 212 204 215 237 245 245 207 157 187 194 212 238 211 212 252 257 215 208 236 250 253 261 297 345 344 312 333 23 317 297 192 166 231 261 267 255 252 252 254 255 255 257 266 272 276 281
267 269 275 279 279 281 288 297 303 311 322 331 332 334 340 340 343 343 340 331 293 270 218 229 242 253 239 250 233 189 194 254 240 228 218 212 207 197 172 176 188 227 200 186 221 248 250 240 217 195 193 169 180 249 224 193 238 278 237 207 227 244 255 262 275 318 295 260 290 71 49 287 293 196 222 238 235 250 254 243 241 248 255 265 269 270 277 285
267 268 274 277 282 286 285 287 289 300 314 320 325 330 333 337 344 345 350 345 294 231 138 175 179 156 260 204 167 154 185 288 245 209 204 201 204 202 209 199 196 245 169 140 273 248 196 203 215 206 173 143 175 251 216 173 201 271 248 198 208 224 233 231 210 208 237 279 298 160 141 274 288 272 201 196 189 247 255 245 246 254 267 274 271 272 278 284
262 263 267 267 272 278 278 279 283 294 303 306 316 319 326 335 338 353 18 290 290 106 108 173 144 76 330 174 173 158 18 333 56 171 195 197 202 196 236 226 189 221 175 153 246 250 150 182 203 170 124 150 203 226 174 157 189 255 230 157 174 197 202 153 153 196 245 339 302 219 143 240 278 281 71 96 185 243 254 252 264 289 287 277 272 276 286 294
256 256 257 260 262 260 263 273 281 288 290 298 307 307 322 329 334 22 86 249 305 75 96 178 137 62 81 145 189 231 4 18 55 116 155 188 202 189 280 237 186 216 229 193 234 262 178 186 186 151 137 202 210 196 160 164 198 227 116 88 76 76 78 104 140 141 80 312 260 195 160 206 276 280 71 74 223 238 256 265 279 288 279 274 274 290 309 319
256 255 252 255 259 257 259 268 277 279 278 290 298 301 317 319 346 53 222 240 342 12 118 133 196 323 86 101 284 280 281 323 102 131 114 134 192 203 298 260 169 174 260 265 257 259 254 80 110 165 190 194 154 114 173 172 175 130 98 57 28 28 33 54 66 94 85 278 236 182 182 179 279 288 124 162 221 214 255 287 292 286 283 282 294 315 334 339
260 258 253 251 254 256 262 268 271 265 261 274 285 304 335 338 70 197 235 264 359 287 87 84 306 47 85 97 305 286 245 262 140 140 127 88 161 211 12 291 158 75 321 298 279 275 258 166 196 216 201 165 121 112 212 126 133 118 88 62 9 327 6 28 353 54 156 261 238 185 183 175 236 267 188 237 244 209 229 274 286 295 305 305 307 312 322 332
262 260 256 252 250 251 256 263 267 261 256 255 248 184 55 2 253 221 251 7 344 268 82 104 294 78 89 61 271 253 285 269 169 132 140 115 143 197 199 202 183 321 300 249 272 306 265 216 215 196 200 182 146 133 337 20 116 128 113 122 299 310 346 350 311 94 203 257 263 193 175 196 243 257 272 271 271 258 233 228 246 264 286 295 298 298 305 326
263 261 257 251 247 247 248 254 259 257 247 217 188 117 88 255 253 203 171 305 254 264 77 139 112 139 150 6 269 222 142 220 184 151 159 139 154 235 235 215 175 221 271 238 312 311 285 259 180 138 232 193 164 173 233 229 164 160 157 159 173 201 251 265 259 264 259 272 287 206 178 256 274 277 247 245 261 275 254 233 247 260 274 286 294 299 311 338
263 263 261 252 245 243 243 247 250 249 235 196 163 101 128 232 249 114 161 233 250 327 330 127 77 287 192 236 247 194 223 249 160 143 174 129 149 253 251 232 193 181 238 260 299 245 257 284 207 173 234 179 180 200 194 140 155 179 163 146 170 183 193 226 231 251 266 277 309 245 193 220 264 278 232 235 266 300 296 276 274 277 276 286 302 313 331 360
264 264 262 257 250 241 238 239 239 239 224 187 149 132 214 232 253 244 223 235 264 294 291 79 101 293 269 246 262 216 219 244 121 124 179 170 185 218 218 217 193 165 157 221 253 164 229 270 253 232 134 159 185 248 94 101 145 210 125 113 218 201 177 237 256 245 254 293 291 233 228 227 246 279 271 259 278 293 297 300 303 292 277 279 310 341 1 1
263 263 260 259 254 247 242 234 230 234 217 180 147 220 225 231 224 212 212 192 192 203 307 313 215 249 282 262 281 260 202 216 176 146 198 202 212 218 220 230 186 172 175 188 221 201 241 274 287 12 49 164 180 320 65 126 202 175 119 190 229 175 144 239 280 291 121 262 253 237 257 275 291 290 302 9 330 308 319 323 322 317 323 356 340 351 355 352
262 261 259 258 255 252 245 231 226 229 209 177 196 228 222 229 204 200 190 143 173 150 135 273 229 202 253 259 269 271 157 216 212 177 208 226 234 205 207 252 198 186 199 191 194 243 245 278 266 178 208 236 177 130 40 135 151 140 175 223 223 145 128 151 260 313 246 250 249 240 256 275 290 280 313 14 338 323 333 328 327 346 10 6 340 340 344 347
263 262 262 262 260 252 238 224 218 215 196 173 236 235 216 224 206 194 195 184 210 176 183 239 238 208 228 246 259 216 177 210 192 170 208 223 235 182 165 237 205 191 213 194 165 260 214 280 271 185 177 259 58 108 297 303 152 156 211 239 108 222 243 147 177 235 243 250 249 229 246 259 257 260 279 297 296 306 324 325 319 315 327 332 332 336 341 345
266 265 268 267 261 241 223 213 207 201 188 182 236 233 216 230 228 220 220 217 196 187 217 238 238 253 250 222 234 226 193 200 181 186 211 217 235 190 153 230 206 199 228 186 172 239 139 232 267 144 137 310 27 125 217 249 242 118 284 316 99 189 206 188 188 192 244 258 260 243 241 241 238 258 276 265 246 291 313 306 283 272 294 319 330 335 339 342
254 254 262 239 234 218 199 195 197 192 189 225 228 233 244 242 243 234 229 227 211 201 226 237 216 241 260 231 225 247 234 202 192 210 223 221 248 232 190 191 148 151 238 160 173 220 142 218 248 267 116 248 269 221 198 196 196 148 174 238 226 206 214 266 234 181 240 257 260 256 246 237 236 268 278 257 209 247 285 273 257 276 310 322 330 336 339 343
201 222 260 205 206 190 178 182 193 192 204 238 234 246 253 254 264 246 232 227 227 231 230 221 212 233 260 261 246 224 211 222 212 217 233 231 244 251 222 192 164 147 94 72 168 224 183 223 241 260 263 247 240 218 187 183 178 166 187 206 214 223 248 277 255 211 212 239 247 256 255 246 249 286 287 281 268 259 255 245 270 314 324 327 332 338 342 345
183 202 214 188 202 181 173 179 206 205 208 225 234 246 250 258 263 256 232 222 224 240 241 235 233 238 251 258 256 225 197 226 214 212 239 234 224 230 229 208 181 162 137 137 214 213 175 171 221 240 245 250 255 241 200 192 184 176 216 211 212 211 206 240 252 241 234 249 256 263 264 243 218 255 272 276 280 285 268 240 292 315 320 328 336 339 344 352
194 213 166 147 194 189 179 188 234 212 223 247 251 256 258 266 257 247 234 215 215 231 242 245 238 239 238 236 243 228 206 218 212 218 238 236 228 232 233 229 196 144 155 258 238 208 154 149 230 249 251 260 270 271 243 181 171 258 255 221 213 221 228 241 252 264 261 257 261 264 262 238 203 236 254 267 284 297 295 301 333 348 355 8 11 7 8 12
222 235 213 164 180 192 190 203 225 218 236 249 254 256 255 260 255 254 252 207 201 213 238 248 240 242 238 227 233 226 219 228 228 231 229 219 243 248 241 259 279 157 218 287 278 209 204 202 208 267 282 278 284 288 301 359 165 229 248 241 232 234 249 264 273 286 265 247 245 256 262 257 235 263 279 288 298 299 310 358 30 37 34 33 30 27 27 24
261 249 238 209 198 209 229 245 229 235 236 238 248 248 251 256 245 249 255 239 220 221 248 266 272 292 268 265 286 256 232 232 241 255 240 220 265 345 19 11 20 168 306 8 19 209 230 234 209 239 261 258 266 263 249 228 176 182 243 244 239 230 233 249 260 253 250 240 236 249 263 264 273 320 317 306 312 318 348 28 40 39 32 31 28 26 28 26
19 271 268 230 215 228 251 256 252 251 222 240 250 241 246 252 246 245 250 248 236 232 244 261 274 315 273 247 271 267 248 228 225 262 299 278 267 328 7 15 33 18 3 24 25 11 243 257 234 239 248 252 263 264 263 281 265 262 268 248 245 242 228 231 241 243 253 256 245 248 264 269 276 314 320 330 348 357 15 33 37 33 29 28 26 25 26 26
33 248 172 331 245 240 249 260 275 274 252 265 248 230 248 253 265 256 235 237 234 227 241 249 234 231 227 230 246 253 249 235 230 244 252 259 263 301 337 3 34 12 3 23 24 30 190 282 254 251 256 255 266 275 282 290 282 276 281 273 270 273 259 249 250 249 256 264 258 259 279 286 287 300 329 5 15 17 28 26 29 34 31 28 28 26 24 21
183 256 174 122 286 257 244 275 315 321 299 297 287 282 275 261 267 267 241 262 267 219 236 260 239 231 236 246 252 250 252 245 244 243 229 256 317 324 340 356 53 26 22 17 22 52 194 268 253 256 268 267 279 289 287 287 284 279 282 280 278 280 274 264 261 263 264 263 265 276 283 281 284 303 27 49 30 30 45 32 30 33 30 29 30 26 22 17
231 266 257 250 267 276 300 319 334 334 303 299 296 269 268 264 265 264 262 295 292 232 215 235 246 232 231 254 257 242 260 264 264 256 195 55 334 244 332 319 29 33 29 14 359 8 239 268 257 263 285 293 289 289 285 284 285 280 274 272 276 276 271 267 270 274 270 264 266 270 270 272 285 23 55 51 34 52 67 44 37 34 28 26 25 21 19 14
244 259 292 323 298 283 292 297 310 321 294 275 254 245 254 260 269 276 270 261 261 250 226 240 261 266 122 101 186 239 275 302 293 288 118 98 14 116 337 264 277 5 3 352 328 288 256 285 324 320 309 296 285 279 277 278 278 281 281 277 273 269 267 269 272 269 265 265 269 270 268 267 42 56 14 16 25 35 57 44 39 34 26 23 20 14 9 6
242 251 289 326 295 264 255 239 285 304 276 246 236 253 260 256 281 322 316 298 331 50 79 355 334 350 37 68 88 239 9 60 59 3 36 2 279 295 295 269 315 340 330 286 269 289 276 300 332 322 292 280 281 280 283 289 288 281 273 266 263 263 266 267 261 259 262 266 275 278 270 263 55 27 348 3 6 8 24 30 36 33 23 19 13 5 358 355
242 252 259 244 267 264 221 102 102 234 246 250 271 333 289 281 9 4 314 55 83 84 60 29 4 355 352 321 321 51 89 74 11 307 303 282 267 263 254 250 257 261 263 278 272 241 247 269 291 286 276 273 275 279 298 320 303 276 259 252 254 258 264 264 260 268 289 257 267 274 253 210 279 318 353 352 352 11 2 342 327 22 17 9 2 356 350 345